Year,Month,Day,Hour,Minute,Value (Times are PST for temperature in C)
2016,02,29,00,00,6.80
2016,02,29,00,01,6.90
2016,02,29,00,02,7.00
2016,02,29,00,03,7.10
2016,02,29,00,04,7.20
2016,02,29,00,05,7.30
2016,02,29,00,06,7.40
2016,02,29,00,07,7.40
2016,02,29,00,08,7.40
2016,02,29,00,09,7.40
2016,02,29,00,10,7.50
2016,02,29,00,11,7.50
2016,02,29,00,12,7.50
2016,02,29,00,17,7.50
2016,02,29,00,18,7.50
2016,02,29,00,19,7.50
2016,02,29,00,20,7.50
2016,02,29,00,21,7.50
2016,02,29,00,22,7.60
2016,02,29,00,23,7.60
2016,02,29,00,24,7.60
2016,02,29,00,25,7.70
2016,02,29,00,26,7.70
2016,02,29,00,27,7.70
2016,02,29,00,28,7.70
2016,02,29,00,29,7.70
2016,02,29,00,30,7.60
2016,02,29,00,31,7.60
2016,02,29,00,32,7.60
2016,02,29,00,33,7.60
2016,02,29,00,34,7.60
2016,02,29,00,35,7.60
2016,02,29,00,36,7.60
2016,02,29,00,37,7.70
2016,02,29,00,38,7.70
2016,02,29,00,39,7.70
2016,02,29,00,40,7.70
2016,02,29,00,41,7.70
2016,02,29,00,42,7.70
2016,02,29,00,43,7.70
2016,02,29,00,44,7.70
2016,02,29,00,45,7.70
2016,02,29,00,46,7.70
2016,02,29,00,47,7.70
2016,02,29,00,48,7.70
2016,02,29,00,49,7.70
2016,02,29,00,50,7.80
2016,02,29,00,51,7.80
2016,02,29,00,52,7.80
2016,02,29,00,53,7.80
2016,02,29,00,54,7.80
2016,02,29,00,55,7.80
2016,02,29,00,56,7.80
2016,02,29,00,57,7.80
2016,02,29,00,58,7.80
2016,02,29,00,59,7.70
2016,02,29,01,00,7.70
2016,02,29,01,01,7.70
2016,02,29,01,02,7.70
2016,02,29,01,03,7.70
2016,02,29,01,04,7.70
2016,02,29,01,05,7.60
2016,02,29,01,06,7.60
2016,02,29,01,07,7.60
2016,02,29,01,08,7.60
2016,02,29,01,09,7.60
2016,02,29,01,10,7.60
2016,02,29,01,11,7.60
2016,02,29,01,12,7.60
2016,02,29,01,13,7.60
2016,02,29,01,14,7.60
2016,02,29,01,15,7.60
2016,02,29,01,16,7.60
2016,02,29,01,17,7.60
2016,02,29,01,18,7.50
2016,02,29,01,19,7.50
2016,02,29,01,20,7.40
2016,02,29,01,21,7.40
2016,02,29,01,22,7.50
2016,02,29,01,23,7.50
2016,02,29,01,24,7.50
2016,02,29,01,25,7.50
2016,02,29,01,26,7.60
2016,02,29,01,27,7.60
2016,02,29,01,28,7.60
2016,02,29,01,29,7.60
2016,02,29,01,30,7.60
2016,02,29,01,31,7.60
2016,02,29,01,32,7.60
2016,02,29,01,33,7.60
2016,02,29,01,34,7.50
2016,02,29,01,35,7.50
2016,02,29,01,36,7.50
2016,02,29,01,37,7.50
2016,02,29,01,38,7.40
2016,02,29,01,39,7.40
2016,02,29,01,40,7.40
2016,02,29,01,41,7.40
2016,02,29,01,42,7.40
2016,02,29,01,43,7.30
2016,02,29,01,44,7.30
2016,02,29,01,45,7.30
2016,02,29,01,46,7.30
2016,02,29,01,47,7.30
2016,02,29,01,48,7.30
2016,02,29,01,49,7.30
2016,02,29,01,50,7.20
2016,02,29,01,51,7.20
2016,02,29,01,52,7.20
2016,02,29,01,53,7.20
2016,02,29,01,54,7.20
2016,02,29,01,55,7.10
2016,02,29,01,56,7.10
2016,02,29,01,57,7.00
2016,02,29,01,58,7.00
2016,02,29,01,59,6.90
2016,02,29,02,00,6.90
2016,02,29,02,01,6.80
2016,02,29,02,02,6.80
2016,02,29,02,03,6.70
2016,02,29,02,04,6.70
2016,02,29,02,05,6.70
2016,02,29,02,06,6.70
2016,02,29,02,07,6.70
2016,02,29,02,08,6.70
2016,02,29,02,09,6.70
2016,02,29,02,10,6.70
2016,02,29,02,11,6.80
2016,02,29,02,12,6.80
2016,02,29,02,13,6.80
2016,02,29,02,14,6.80
2016,02,29,02,15,6.80
2016,02,29,02,16,6.90
2016,02,29,02,17,6.90
2016,02,29,02,18,6.90
2016,02,29,02,19,7.00
2016,02,29,02,20,7.00
2016,02,29,02,21,7.10
2016,02,29,02,22,7.20
2016,02,29,02,23,7.20
2016,02,29,02,24,7.30
2016,02,29,02,25,7.30
2016,02,29,02,26,7.40
2016,02,29,02,27,7.40
2016,02,29,02,28,7.50
2016,02,29,02,29,7.50
2016,02,29,02,30,7.60
2016,02,29,02,31,7.60
2016,02,29,02,32,7.60
2016,02,29,02,33,7.60
2016,02,29,02,34,7.60
2016,02,29,02,35,7.70
2016,02,29,02,36,7.70
2016,02,29,02,37,7.70
2016,02,29,02,38,7.70
2016,02,29,02,39,7.70
2016,02,29,02,40,7.70
2016,02,29,02,41,7.70
2016,02,29,02,42,7.70
2016,02,29,02,43,7.70
2016,02,29,02,44,7.70
2016,02,29,02,45,7.70
2016,02,29,02,46,7.70
2016,02,29,02,47,7.60
2016,02,29,02,48,7.60
2016,02,29,02,49,7.60
2016,02,29,02,50,7.60
2016,02,29,02,51,7.60
2016,02,29,02,52,7.60
2016,02,29,02,53,7.60
2016,02,29,02,54,7.60
2016,02,29,02,55,7.60
2016,02,29,02,56,7.50
2016,02,29,02,57,7.50
2016,02,29,02,58,7.50
2016,02,29,02,59,7.40
2016,02,29,03,00,7.40
2016,02,29,03,01,7.30
2016,02,29,03,02,7.30
2016,02,29,03,03,7.30
2016,02,29,03,04,7.30
2016,02,29,03,05,7.30
2016,02,29,03,06,7.30
2016,02,29,03,07,7.30
2016,02,29,03,08,7.20
2016,02,29,03,09,7.20
2016,02,29,03,10,7.20
2016,02,29,03,11,7.20
2016,02,29,03,12,7.20
2016,02,29,03,13,7.20
2016,02,29,03,14,7.20
2016,02,29,03,15,7.20
2016,02,29,03,16,7.20
2016,02,29,03,17,7.10
2016,02,29,03,18,7.10
2016,02,29,03,19,7.10
2016,02,29,03,20,7.10
2016,02,29,03,21,7.00
2016,02,29,03,22,7.00
2016,02,29,03,23,6.90
2016,02,29,03,24,6.90
2016,02,29,03,25,6.90
2016,02,29,03,26,6.90
2016,02,29,03,27,6.90
2016,02,29,03,28,6.90
2016,02,29,03,29,6.80
2016,02,29,03,30,6.80
2016,02,29,03,31,6.80
2016,02,29,03,32,6.80
2016,02,29,03,33,6.80
2016,02,29,03,34,6.80
2016,02,29,03,35,6.70
2016,02,29,03,36,6.70
2016,02,29,03,37,6.70
2016,02,29,03,38,6.60
2016,02,29,03,39,6.60
2016,02,29,03,40,6.60
2016,02,29,03,41,6.60
2016,02,29,03,42,6.50
2016,02,29,03,43,6.50
2016,02,29,03,44,6.40
2016,02,29,03,45,6.40
2016,02,29,03,46,6.40
2016,02,29,03,47,6.40
2016,02,29,03,48,6.30
2016,02,29,03,49,6.30
2016,02,29,03,50,6.30
2016,02,29,03,51,6.30
2016,02,29,03,52,6.30
2016,02,29,03,53,6.20
2016,02,29,03,54,6.20
2016,02,29,03,55,6.20
2016,02,29,03,56,6.20
2016,02,29,03,57,6.20
2016,02,29,03,58,6.10
2016,02,29,03,59,6.10
2016,02,29,04,00,6.10
2016,02,29,04,01,6.10
2016,02,29,04,02,6.10
2016,02,29,04,03,6.20
2016,02,29,04,04,6.30
2016,02,29,04,05,6.40
2016,02,29,04,06,6.40
2016,02,29,04,07,6.40
2016,02,29,04,08,6.40
2016,02,29,04,09,6.30
2016,02,29,04,10,6.30
2016,02,29,04,11,6.30
2016,02,29,04,12,6.30
2016,02,29,04,13,6.30
2016,02,29,04,14,6.20
2016,02,29,04,15,6.20
2016,02,29,04,16,6.20
2016,02,29,04,17,6.20
2016,02,29,04,18,6.20
2016,02,29,04,19,6.20
2016,02,29,04,20,6.20
2016,02,29,04,21,6.20
2016,02,29,04,22,6.20
2016,02,29,04,23,6.20
2016,02,29,04,24,6.20
2016,02,29,04,25,6.20
2016,02,29,04,26,6.20
2016,02,29,04,27,6.20
2016,02,29,04,28,6.20
2016,02,29,04,29,6.20
2016,02,29,04,30,6.20
2016,02,29,04,31,6.20
2016,02,29,04,32,6.20
2016,02,29,04,33,6.20
2016,02,29,04,34,6.20
2016,02,29,04,35,6.20
2016,02,29,04,36,6.20
2016,02,29,04,37,6.20
2016,02,29,04,38,6.20
2016,02,29,04,39,6.20
2016,02,29,04,40,6.20
2016,02,29,04,41,6.20
2016,02,29,04,42,6.20
2016,02,29,04,43,6.10
2016,02,29,04,44,6.10
2016,02,29,04,45,6.10
2016,02,29,04,46,6.10
2016,02,29,04,47,6.10
2016,02,29,04,48,6.10
2016,02,29,04,49,6.00
2016,02,29,04,50,6.00
2016,02,29,04,51,6.00
2016,02,29,04,52,5.90
2016,02,29,04,53,5.90
2016,02,29,04,54,5.90
2016,02,29,04,55,5.80
2016,02,29,04,56,5.80
2016,02,29,04,57,5.80
2016,02,29,04,58,5.80
2016,02,29,04,59,5.80
2016,02,29,05,00,5.80
2016,02,29,05,01,5.70
2016,02,29,05,02,5.70
2016,02,29,05,03,5.70
2016,02,29,05,04,5.70
2016,02,29,05,05,5.70
2016,02,29,05,06,5.70
2016,02,29,05,07,5.70
2016,02,29,05,08,5.70
2016,02,29,05,09,5.70
2016,02,29,05,10,5.70
2016,02,29,05,11,5.70
2016,02,29,05,12,5.70
2016,02,29,05,13,5.70
2016,02,29,05,14,5.70
2016,02,29,05,15,5.70
2016,02,29,05,16,5.70
2016,02,29,05,17,5.70
2016,02,29,05,18,5.70
2016,02,29,05,19,5.70
2016,02,29,05,20,5.60
2016,02,29,05,21,5.60
2016,02,29,05,22,5.60
2016,02,29,05,23,5.60
2016,02,29,05,24,5.50
2016,02,29,05,25,5.50
2016,02,29,05,26,5.50
2016,02,29,05,27,5.40
2016,02,29,05,28,5.40
2016,02,29,05,29,5.40
2016,02,29,05,30,5.40
2016,02,29,05,31,5.40
2016,02,29,05,32,5.40
2016,02,29,05,33,5.40
2016,02,29,05,34,5.30
2016,02,29,05,35,5.30
2016,02,29,05,36,5.30
2016,02,29,05,37,5.30
2016,02,29,05,38,5.30
2016,02,29,05,39,5.20
2016,02,29,05,40,5.20
2016,02,29,05,41,5.20
2016,02,29,05,42,5.20
2016,02,29,05,43,5.20
2016,02,29,05,44,5.10
2016,02,29,05,45,5.10
2016,02,29,05,46,5.10
2016,02,29,05,47,5.10
2016,02,29,05,48,5.10
2016,02,29,05,49,5.00
2016,02,29,05,50,5.00
2016,02,29,05,51,5.00
2016,02,29,05,52,5.00
2016,02,29,05,53,5.00
2016,02,29,05,54,4.90
2016,02,29,05,55,4.90
2016,02,29,05,56,4.90
2016,02,29,05,57,4.90
2016,02,29,05,58,4.90
2016,02,29,05,59,4.90
2016,02,29,06,00,4.90
2016,02,29,06,01,4.90
2016,02,29,06,02,4.90
2016,02,29,06,03,4.90
2016,02,29,06,04,4.90
2016,02,29,06,05,4.90
2016,02,29,06,06,4.90
2016,02,29,06,07,4.90
2016,02,29,06,08,4.90
2016,02,29,06,09,4.90
2016,02,29,06,10,4.90
2016,02,29,06,11,4.90
2016,02,29,06,12,4.90
2016,02,29,06,13,4.90
2016,02,29,06,14,4.90
2016,02,29,06,15,4.90
2016,02,29,06,16,4.90
2016,02,29,06,17,5.00
2016,02,29,06,18,5.00
2016,02,29,06,19,5.00
2016,02,29,06,20,5.00
2016,02,29,06,21,5.00
2016,02,29,06,22,5.10
2016,02,29,06,23,5.10
2016,02,29,06,24,5.10
2016,02,29,06,25,5.10
2016,02,29,06,26,5.10
2016,02,29,06,27,5.10
2016,02,29,06,28,5.10
2016,02,29,06,29,5.10
2016,02,29,06,30,5.10
2016,02,29,06,31,5.10
2016,02,29,06,32,5.10
2016,02,29,06,33,5.10
2016,02,29,06,34,5.10
2016,02,29,06,35,5.10
2016,02,29,06,36,5.10
2016,02,29,06,37,5.10
2016,02,29,06,38,5.10
2016,02,29,06,39,5.10
2016,02,29,06,40,5.10
2016,02,29,06,41,5.10
2016,02,29,06,42,5.10
2016,02,29,06,43,5.10
2016,02,29,06,44,5.10
2016,02,29,06,45,5.10
2016,02,29,06,46,5.10
2016,02,29,06,47,5.10
2016,02,29,06,48,5.10
2016,02,29,06,49,5.10
2016,02,29,06,50,5.10
2016,02,29,06,51,5.10
2016,02,29,06,52,5.10
2016,02,29,06,53,5.10
2016,02,29,06,54,5.10
2016,02,29,06,55,5.10
2016,02,29,06,56,5.00
2016,02,29,06,57,5.00
2016,02,29,06,58,5.00
2016,02,29,06,59,5.00
2016,02,29,07,00,5.00
2016,02,29,07,01,5.00
2016,02,29,07,02,5.00
2016,02,29,07,03,5.00
2016,02,29,07,04,4.90
2016,02,29,07,05,4.90
2016,02,29,07,06,4.90
2016,02,29,07,07,4.90
2016,02,29,07,08,4.90
2016,02,29,07,09,4.90
2016,02,29,07,10,4.90
2016,02,29,07,11,4.90
2016,02,29,07,12,4.90
2016,02,29,07,13,4.90
2016,02,29,07,14,4.90
2016,02,29,07,15,4.90
2016,02,29,07,16,4.90
2016,02,29,07,17,4.90
2016,02,29,07,18,4.90
2016,02,29,07,19,4.90
2016,02,29,07,20,4.90
2016,02,29,07,21,4.90
2016,02,29,07,22,4.90
2016,02,29,07,23,4.90
2016,02,29,07,24,5.00
2016,02,29,07,25,5.00
2016,02,29,07,26,5.00
2016,02,29,07,27,5.00
2016,02,29,07,28,5.00
2016,02,29,07,29,5.00
2016,02,29,07,30,5.00
2016,02,29,07,31,5.00
2016,02,29,07,32,5.00
2016,02,29,07,33,5.00
2016,02,29,07,34,5.10
2016,02,29,07,35,5.10
2016,02,29,07,36,5.10
2016,02,29,07,37,5.10
2016,02,29,07,38,5.10
2016,02,29,07,39,5.10
2016,02,29,07,40,5.10
2016,02,29,07,41,5.10
2016,02,29,07,42,5.10
2016,02,29,07,43,5.10
2016,02,29,07,44,5.10
2016,02,29,07,45,5.20
2016,02,29,07,46,5.20
2016,02,29,07,47,5.20
2016,02,29,07,48,5.20
2016,02,29,07,49,5.20
2016,02,29,07,50,5.20
2016,02,29,07,51,5.20
2016,02,29,07,52,5.20
2016,02,29,07,53,5.20
2016,02,29,07,54,5.20
2016,02,29,07,55,5.20
2016,02,29,07,56,5.20
2016,02,29,07,57,5.20
2016,02,29,07,58,5.20
2016,02,29,07,59,5.20
2016,02,29,08,00,5.20
2016,02,29,08,01,5.20
2016,02,29,08,02,5.20
2016,02,29,08,03,5.20
2016,02,29,08,04,5.20
2016,02,29,08,05,5.20
2016,02,29,08,06,5.20
2016,02,29,08,07,5.30
2016,02,29,08,08,5.30
2016,02,29,08,09,5.30
2016,02,29,08,10,5.30
2016,02,29,08,11,5.30
2016,02,29,08,12,5.30
2016,02,29,08,13,5.30
2016,02,29,08,14,5.30
2016,02,29,08,15,5.30
2016,02,29,08,16,5.30
2016,02,29,08,17,5.30
2016,02,29,08,18,5.30
2016,02,29,08,19,5.30
2016,02,29,08,20,5.30
2016,02,29,08,21,5.30
2016,02,29,08,22,5.30
2016,02,29,08,23,5.30
2016,02,29,08,24,5.40
2016,02,29,08,25,5.40
2016,02,29,08,26,5.40
2016,02,29,08,27,5.50
2016,02,29,08,28,5.50
2016,02,29,08,29,5.50
2016,02,29,08,30,5.50
2016,02,29,08,31,5.60
2016,02,29,08,32,5.60
2016,02,29,08,33,5.60
2016,02,29,08,34,5.60
2016,02,29,08,35,5.60
2016,02,29,08,36,5.60
2016,02,29,08,37,5.50
2016,02,29,08,38,5.50
2016,02,29,08,39,5.50
2016,02,29,08,40,5.50
2016,02,29,08,41,5.50
2016,02,29,08,42,5.50
2016,02,29,08,43,5.50
2016,02,29,08,44,5.50
2016,02,29,08,45,5.60
2016,02,29,08,46,5.60
2016,02,29,08,47,5.60
2016,02,29,08,48,5.60
2016,02,29,08,49,5.60
2016,02,29,08,50,5.60
2016,02,29,08,51,5.60
2016,02,29,08,52,5.60
2016,02,29,08,53,5.70
2016,02,29,08,54,5.70
2016,02,29,08,55,5.70
2016,02,29,08,56,5.70
2016,02,29,08,57,5.70
2016,02,29,08,58,5.70
2016,02,29,08,59,5.70
2016,02,29,09,00,5.70
2016,02,29,09,01,5.70
2016,02,29,09,02,5.70
2016,02,29,09,03,5.70
2016,02,29,09,04,5.70
2016,02,29,09,05,5.70
2016,02,29,09,06,5.80
2016,02,29,09,07,5.80
2016,02,29,09,08,5.80
2016,02,29,09,09,5.90
2016,02,29,09,10,5.90
2016,02,29,09,11,6.00
2016,02,29,09,12,6.10
2016,02,29,09,13,6.10
2016,02,29,09,14,6.20
2016,02,29,09,15,6.20
2016,02,29,09,16,6.20
2016,02,29,09,17,6.20
2016,02,29,09,18,6.20
2016,02,29,09,19,6.10
2016,02,29,09,20,6.10
2016,02,29,09,21,6.10
2016,02,29,09,22,6.10
2016,02,29,09,23,6.10
2016,02,29,09,24,6.10
2016,02,29,09,25,6.10
2016,02,29,09,26,6.20
2016,02,29,09,27,6.20
2016,02,29,09,28,6.20
2016,02,29,09,29,6.20
2016,02,29,09,30,6.30
2016,02,29,09,31,6.40
2016,02,29,09,32,6.50
2016,02,29,09,33,6.60
2016,02,29,09,34,6.70
2016,02,29,09,35,6.70
2016,02,29,09,36,6.80
2016,02,29,09,37,6.90
2016,02,29,09,38,6.90
2016,02,29,09,39,7.00
2016,02,29,09,40,6.90
2016,02,29,09,41,6.90
2016,02,29,09,42,6.90
2016,02,29,09,43,6.90
2016,02,29,09,44,6.80
2016,02,29,09,45,6.80
2016,02,29,09,46,6.80
2016,02,29,09,47,6.80
2016,02,29,09,48,6.90
2016,02,29,09,49,7.00
2016,02,29,09,50,7.00
2016,02,29,09,51,7.10
2016,02,29,09,52,7.00
2016,02,29,09,53,7.00
2016,02,29,09,54,6.90
2016,02,29,09,55,6.90
2016,02,29,09,56,6.90
2016,02,29,09,57,6.90
2016,02,29,09,58,6.90
2016,02,29,09,59,6.90
2016,02,29,10,00,6.90
2016,02,29,10,01,7.00
2016,02,29,10,02,7.00
2016,02,29,10,03,7.10
2016,02,29,10,04,7.00
2016,02,29,10,05,7.00
2016,02,29,10,06,7.10
2016,02,29,10,07,7.10
2016,02,29,10,08,7.10
2016,02,29,10,09,7.10
2016,02,29,10,10,7.10
2016,02,29,10,11,7.10
2016,02,29,10,12,7.20
2016,02,29,10,13,7.20
2016,02,29,10,14,7.20
2016,02,29,10,15,7.10
2016,02,29,10,16,7.10
2016,02,29,10,17,7.10
2016,02,29,10,18,7.20
2016,02,29,10,19,7.20
2016,02,29,10,20,7.20
2016,02,29,10,21,7.30
2016,02,29,10,22,7.30
2016,02,29,10,23,7.30
2016,02,29,10,24,7.30
2016,02,29,10,25,7.30
2016,02,29,10,26,7.30
2016,02,29,10,27,7.40
2016,02,29,10,28,7.40
2016,02,29,10,29,7.40
2016,02,29,10,30,7.50
2016,02,29,10,31,7.50
2016,02,29,10,32,7.50
2016,02,29,10,33,7.60
2016,02,29,10,34,7.60
2016,02,29,10,35,7.70
2016,02,29,10,36,7.70
2016,02,29,10,37,7.70
2016,02,29,10,38,7.70
2016,02,29,10,39,7.70
2016,02,29,10,40,7.70
2016,02,29,10,41,7.70
2016,02,29,10,42,7.70
2016,02,29,10,43,7.70
2016,02,29,10,44,7.70
2016,02,29,10,45,7.70
2016,02,29,10,46,7.80
2016,02,29,10,47,7.80
2016,02,29,10,48,7.80
2016,02,29,10,49,7.80
2016,02,29,10,50,7.80
2016,02,29,10,51,7.90
2016,02,29,10,52,7.80
2016,02,29,10,53,7.80
2016,02,29,10,54,7.80
2016,02,29,10,55,7.80
2016,02,29,10,56,7.80
2016,02,29,10,57,7.80
2016,02,29,10,58,7.80
2016,02,29,10,59,7.80
2016,02,29,11,00,7.80
2016,02,29,11,01,7.80
2016,02,29,11,02,7.80
2016,02,29,11,03,7.90
2016,02,29,11,04,7.90
2016,02,29,11,05,7.90
2016,02,29,11,06,7.90
2016,02,29,11,07,7.90
2016,02,29,11,08,7.90
2016,02,29,11,09,7.90
2016,02,29,11,10,7.90
2016,02,29,11,11,7.90
2016,02,29,11,12,7.90
2016,02,29,11,13,7.90
2016,02,29,11,14,8.00
2016,02,29,11,15,8.00
2016,02,29,11,16,8.10
2016,02,29,11,17,8.10
2016,02,29,11,18,8.10
2016,02,29,11,19,8.10
2016,02,29,11,20,8.10
2016,02,29,11,21,8.10
2016,02,29,11,22,8.20
2016,02,29,11,23,8.20
2016,02,29,11,24,8.20
2016,02,29,11,25,8.20
2016,02,29,11,26,8.20
2016,02,29,11,27,8.20
2016,02,29,11,28,8.20
2016,02,29,11,29,8.30
2016,02,29,11,30,8.30
2016,02,29,11,31,8.30
2016,02,29,11,32,8.40
2016,02,29,11,33,8.40
2016,02,29,11,34,8.50
2016,02,29,11,35,8.50
2016,02,29,11,36,8.60
2016,02,29,11,37,8.60
2016,02,29,11,38,8.70
2016,02,29,11,39,8.80
2016,02,29,11,40,8.80
2016,02,29,11,41,8.80
2016,02,29,11,42,8.80
2016,02,29,11,43,8.90
2016,02,29,11,44,8.90
2016,02,29,11,45,8.90
2016,02,29,11,46,8.80
2016,02,29,11,47,8.80
2016,02,29,11,48,8.80
2016,02,29,11,49,8.80
2016,02,29,11,50,8.80
2016,02,29,11,51,8.80
2016,02,29,11,52,8.80
2016,02,29,11,53,8.70
2016,02,29,11,54,8.70
2016,02,29,11,55,8.70
2016,02,29,11,56,8.70
2016,02,29,11,57,8.70
2016,02,29,11,58,8.70
2016,02,29,11,59,8.70
2016,02,29,12,00,8.70
2016,02,29,12,01,8.70
2016,02,29,12,02,8.70
2016,02,29,12,03,8.80
2016,02,29,12,04,8.80
2016,02,29,12,05,8.80
2016,02,29,12,06,8.80
2016,02,29,12,07,8.80
2016,02,29,12,08,8.90
2016,02,29,12,09,8.90
2016,02,29,12,10,8.90
2016,02,29,12,11,8.90
2016,02,29,12,12,8.90
2016,02,29,12,13,9.00
2016,02,29,12,14,9.10
2016,02,29,12,15,9.10
2016,02,29,12,16,9.10
2016,02,29,12,17,9.20
2016,02,29,12,18,9.10
2016,02,29,12,19,9.10
2016,02,29,12,20,9.10
2016,02,29,12,21,9.10
2016,02,29,12,22,9.10
2016,02,29,12,23,9.10
2016,02,29,12,24,9.10
2016,02,29,12,25,9.20
2016,02,29,12,26,9.20
2016,02,29,12,27,9.20
2016,02,29,12,28,9.20
2016,02,29,12,29,9.20
2016,02,29,12,30,9.30
2016,02,29,12,31,9.30
2016,02,29,12,32,9.30
2016,02,29,12,33,9.30
2016,02,29,12,34,9.30
2016,02,29,12,35,9.30
2016,02,29,12,36,9.30
2016,02,29,12,37,9.20
2016,02,29,12,38,9.20
2016,02,29,12,39,9.20
2016,02,29,12,40,9.20
2016,02,29,12,41,9.20
2016,02,29,12,42,9.20
2016,02,29,12,43,9.20
2016,02,29,12,44,9.20
2016,02,29,12,45,9.20
2016,02,29,12,46,9.20
2016,02,29,12,47,9.20
2016,02,29,12,48,9.10
2016,02,29,12,49,9.10
2016,02,29,12,50,9.20
2016,02,29,12,51,9.20
2016,02,29,12,52,9.20
2016,02,29,12,53,9.30
2016,02,29,12,54,9.30
2016,02,29,12,55,9.30
2016,02,29,12,56,9.30
2016,02,29,12,57,9.40
2016,02,29,12,58,9.40
2016,02,29,12,59,9.40
2016,02,29,13,00,9.50
2016,02,29,13,01,9.50
2016,02,29,13,02,9.50
2016,02,29,13,03,9.60
2016,02,29,13,04,9.60
2016,02,29,13,05,9.60
2016,02,29,13,06,9.60
2016,02,29,13,07,9.60
2016,02,29,13,08,9.60
2016,02,29,13,09,9.60
2016,02,29,13,10,9.60
2016,02,29,13,11,9.50
2016,02,29,13,12,9.40
2016,02,29,13,13,9.30
2016,02,29,13,14,9.30
2016,02,29,13,15,9.20
2016,02,29,13,16,9.20
2016,02,29,13,17,9.20
2016,02,29,13,18,9.10
2016,02,29,13,19,9.00
2016,02,29,13,20,8.90
2016,02,29,13,21,8.80
2016,02,29,13,22,8.80
2016,02,29,13,23,8.70
2016,02,29,13,24,8.70
2016,02,29,13,25,8.70
2016,02,29,13,26,8.70
2016,02,29,13,27,8.60
2016,02,29,13,28,8.60
2016,02,29,13,29,8.60
2016,02,29,13,30,8.60
2016,02,29,13,31,8.60
2016,02,29,13,32,8.50
2016,02,29,13,33,8.50
2016,02,29,13,34,8.40
2016,02,29,13,35,8.40
2016,02,29,13,36,8.40
2016,02,29,13,37,8.40
2016,02,29,13,38,8.30
2016,02,29,13,39,8.30
2016,02,29,13,40,8.30
2016,02,29,13,41,8.30
2016,02,29,13,42,8.20
2016,02,29,13,43,8.20
2016,02,29,13,44,8.20
2016,02,29,13,45,8.20
2016,02,29,13,46,8.20
2016,02,29,13,47,8.30
2016,02,29,13,48,8.30
2016,02,29,13,49,8.30
2016,02,29,13,50,8.30
2016,02,29,13,51,8.30
2016,02,29,13,52,8.30
2016,02,29,13,53,8.30
2016,02,29,13,54,8.30
2016,02,29,13,55,8.30
2016,02,29,13,56,8.30
2016,02,29,13,57,8.30
2016,02,29,13,58,8.40
2016,02,29,13,59,8.40
2016,02,29,14,00,8.40
2016,02,29,14,01,8.40
2016,02,29,14,02,8.40
2016,02,29,14,03,8.40
2016,02,29,14,04,8.40
2016,02,29,14,05,8.40
2016,02,29,14,06,8.40
2016,02,29,14,07,8.40
2016,02,29,14,08,8.40
2016,02,29,14,09,8.40
2016,02,29,14,10,8.40
2016,02,29,14,11,8.40
2016,02,29,14,12,8.40
2016,02,29,14,13,8.40
2016,02,29,14,14,8.40
2016,02,29,14,15,8.40
2016,02,29,14,16,8.40
2016,02,29,14,17,8.50
2016,02,29,14,18,8.50
2016,02,29,14,19,8.60
2016,02,29,14,20,8.60
2016,02,29,14,21,8.60
2016,02,29,14,22,8.60
2016,02,29,14,23,8.60
2016,02,29,14,24,8.60
2016,02,29,14,25,8.60
2016,02,29,14,26,8.60
2016,02,29,14,27,8.60
2016,02,29,14,28,8.60
2016,02,29,14,29,8.60
2016,02,29,14,30,8.60
2016,02,29,14,31,8.60
2016,02,29,14,32,8.50
2016,02,29,14,33,8.50
2016,02,29,14,34,8.50
2016,02,29,14,35,8.50
2016,02,29,14,36,8.50
2016,02,29,14,37,8.40
2016,02,29,14,38,8.40
2016,02,29,14,39,8.40
2016,02,29,14,40,8.40
2016,02,29,14,41,8.40
2016,02,29,14,42,8.40
2016,02,29,14,43,8.40
2016,02,29,14,44,8.40
2016,02,29,14,45,8.40
2016,02,29,14,46,8.40
2016,02,29,14,47,8.40
2016,02,29,14,48,8.40
2016,02,29,14,49,8.40
2016,02,29,14,50,8.40
2016,02,29,14,51,8.30
2016,02,29,14,52,8.30
2016,02,29,14,53,8.30
2016,02,29,14,54,8.30
2016,02,29,14,55,8.30
2016,02,29,14,56,8.30
2016,02,29,14,57,8.40
2016,02,29,14,58,8.40
2016,02,29,14,59,8.40
2016,02,29,15,00,8.40
2016,02,29,15,01,8.50
2016,02,29,15,02,8.50
2016,02,29,15,03,8.60
2016,02,29,15,04,8.60
2016,02,29,15,05,8.70
2016,02,29,15,06,8.70
2016,02,29,15,07,8.70
2016,02,29,15,08,8.80
2016,02,29,15,09,8.80
2016,02,29,15,10,8.80
2016,02,29,15,11,8.80
2016,02,29,15,12,8.80
2016,02,29,15,13,8.80
2016,02,29,15,14,8.90
2016,02,29,15,15,8.90
2016,02,29,15,16,8.90
2016,02,29,15,17,8.90
2016,02,29,15,18,8.90
2016,02,29,15,19,8.90
2016,02,29,15,20,8.90
2016,02,29,15,21,9.00
2016,02,29,15,22,9.00
2016,02,29,15,23,9.10
2016,02,29,15,24,9.10
2016,02,29,15,25,9.20
2016,02,29,15,26,9.20
2016,02,29,15,27,9.20
2016,02,29,15,28,9.20
2016,02,29,15,29,9.30
2016,02,29,15,30,9.30
2016,02,29,15,31,9.30
2016,02,29,15,32,9.30
2016,02,29,15,33,9.30
2016,02,29,15,34,9.30
2016,02,29,15,35,9.30
2016,02,29,15,36,9.30
2016,02,29,15,37,9.30
2016,02,29,15,38,9.30
2016,02,29,15,39,9.30
2016,02,29,15,40,9.30
2016,02,29,15,41,9.20
2016,02,29,15,42,9.30
2016,02,29,15,43,9.30
2016,02,29,15,44,9.30
2016,02,29,15,45,9.30
2016,02,29,15,46,9.30
2016,02,29,15,47,9.30
2016,02,29,15,48,9.30
2016,02,29,15,49,9.30
2016,02,29,15,50,9.30
2016,02,29,15,51,9.30
2016,02,29,15,52,9.30
2016,02,29,15,53,9.30
2016,02,29,15,54,9.30
2016,02,29,15,55,9.30
2016,02,29,15,56,9.30
2016,02,29,15,57,9.30
2016,02,29,15,58,9.20
2016,02,29,15,59,9.20
2016,02,29,16,00,9.20
2016,02,29,16,01,9.20
2016,02,29,16,02,9.20
2016,02,29,16,03,9.20
2016,02,29,16,04,9.10
2016,02,29,16,05,9.10
2016,02,29,16,06,9.10
2016,02,29,16,07,9.00
2016,02,29,16,08,9.00
2016,02,29,16,09,9.00
2016,02,29,16,10,9.00
2016,02,29,16,11,8.90
2016,02,29,16,12,8.90
2016,02,29,16,13,8.90
2016,02,29,16,14,8.90
2016,02,29,16,15,8.80
2016,02,29,16,16,8.80
2016,02,29,16,17,8.80
2016,02,29,16,18,8.80
2016,02,29,16,19,8.80
2016,02,29,16,20,8.80
2016,02,29,16,21,8.80
2016,02,29,16,22,8.80
2016,02,29,16,23,8.80
2016,02,29,16,24,8.80
2016,02,29,16,25,8.80
2016,02,29,16,26,8.80
2016,02,29,16,27,8.80
2016,02,29,16,28,8.80
2016,02,29,16,29,8.80
2016,02,29,16,30,8.80
2016,02,29,16,31,8.80
2016,02,29,16,32,8.70
2016,02,29,16,33,8.70
2016,02,29,16,34,8.70
2016,02,29,16,35,8.70
2016,02,29,16,36,8.70
2016,02,29,16,37,8.70
2016,02,29,16,38,8.70
2016,02,29,16,39,8.70
2016,02,29,16,40,8.70
2016,02,29,16,41,8.70
2016,02,29,16,42,8.80
2016,02,29,16,43,8.80
2016,02,29,16,44,8.80
2016,02,29,16,45,8.80
2016,02,29,16,46,8.80
2016,02,29,16,47,8.80
2016,02,29,16,48,8.80
2016,02,29,16,49,8.80
2016,02,29,16,50,8.80
2016,02,29,16,51,8.80
2016,02,29,16,52,8.80
2016,02,29,16,53,8.80
2016,02,29,16,54,8.80
2016,02,29,16,55,8.80
2016,02,29,16,56,8.80
2016,02,29,16,57,8.80
2016,02,29,16,58,8.80
2016,02,29,16,59,8.80
2016,02,29,17,00,8.80
2016,02,29,17,01,8.70
2016,02,29,17,02,8.70
2016,02,29,17,03,8.70
2016,02,29,17,04,8.70
2016,02,29,17,05,8.70
2016,02,29,17,06,8.70
2016,02,29,17,07,8.70
2016,02,29,17,08,8.70
2016,02,29,17,09,8.70
2016,02,29,17,10,8.60
2016,02,29,17,11,8.60
2016,02,29,17,12,8.60
2016,02,29,17,13,8.60
2016,02,29,17,14,8.50
2016,02,29,17,15,8.50
2016,02,29,17,16,8.40
2016,02,29,17,17,8.40
2016,02,29,17,18,8.30
2016,02,29,17,19,8.30
2016,02,29,17,20,8.20
2016,02,29,17,21,8.20
2016,02,29,17,22,8.10
2016,02,29,17,23,8.10
2016,02,29,17,24,8.10
2016,02,29,17,25,8.10
2016,02,29,17,26,8.00
2016,02,29,17,27,8.00
2016,02,29,17,28,8.00
2016,02,29,17,29,7.90
2016,02,29,17,30,7.90
2016,02,29,17,31,7.90
2016,02,29,17,32,7.90
2016,02,29,17,33,7.90
2016,02,29,17,34,7.90
2016,02,29,17,35,7.80
2016,02,29,17,36,7.80
2016,02,29,17,37,7.80
2016,02,29,17,38,7.80
2016,02,29,17,39,7.80
2016,02,29,17,40,7.70
2016,02,29,17,41,7.70
2016,02,29,17,42,7.70
2016,02,29,17,43,7.60
2016,02,29,17,44,7.60
2016,02,29,17,45,7.60
2016,02,29,17,46,7.60
2016,02,29,17,47,7.50
2016,02,29,17,48,7.50
2016,02,29,17,49,7.50
2016,02,29,17,50,7.50
2016,02,29,17,51,7.50
2016,02,29,17,52,7.50
2016,02,29,17,53,7.40
2016,02,29,17,54,7.40
2016,02,29,17,55,7.40
2016,02,29,17,56,7.40
2016,02,29,17,57,7.40
2016,02,29,17,58,7.30
2016,02,29,17,59,7.30
2016,02,29,18,00,7.30
2016,02,29,18,01,7.30
2016,02,29,18,02,7.30
2016,02,29,18,03,7.20
2016,02,29,18,04,7.20
2016,02,29,18,05,7.20
2016,02,29,18,06,7.20
2016,02,29,18,07,7.20
2016,02,29,18,08,7.20
2016,02,29,18,09,7.10
2016,02,29,18,10,7.10